Find Starlink 1474

NORAD ID: 45738 Int'l Des: 2020-038 Owner: SPXS Country: US Constellation: starlink decayed
LEOCIRCULAR
Vis

Historical Track — Feb 23, 2026

3D地球を読み込み中...

Starlink 1474について

説明を読み込み中...

高度履歴

Loading altitude history...

軌道要素

1 45738U 20038J 26054.61794429 .10636261 12571-4 28085-3 0 9990
2 45738 53.0073 132.8689 0005025 309.5660 50.4944 16.45516543316405
Epoch: Feb 23, 2026 • Age: 1584 hours

現在のステータス

Position data unavailable
打ち上げ日 Jun 13, 2020
運用期間 5.8 years
落下予定日 Feb 23, 2026
タイプ internet

技術仕様

分類 Payload
質量 260.00 kg
乾燥質量 248.00 kg
総質量 260.00 kg
長さ 0.20 m
直径 2.80 m
スパン 9.00 m
形状 Box + pan
製造者 SPXS
バスタイプ Starlink
フェーズステータス Reentered
所有者/国 SPXS/US

Most Searched